User: anonymous   Login
Location: Newark
(50.1395°N, 5.5234°W)
Time: 12:01:35
(UTC+00:00)
Language:

AO-27 - Orbit

View from above orbital plane
View from above orbital plane
View from above satellite
View from above satellite

Ground track
Ground track

The orbit data is extracted from the following two-line orbital elements,

1 22825U 93061C   21125.77040655  .00000000  00000-0  18063-4 0  9995
2 22825  98.9201 142.3337 0008931 152.5388 207.6267 14.30113350439889
Epoch (UTC): 05 May 2021 18:29:23
Eccentricity: 0.0008931
inclination: 98.9201°
perigee height: 785 km
apogee height: 798 km
right ascension of ascending node: 142.3337°
argument of perigee: 152.5388°
revolutions per day: 14.30113350
mean anomaly at epoch: 207.6267°
orbit number at epoch: 43988

The dashed part of the orbit path shows where the satellite is in the earth's shadow,  

DLR